Back to catalog

CZ-6A DEB

AlivePO
NORAD 61358·DEBRIS·🇨🇳 China

Launched Aug 6, 2024 from Taiyuan Satellite Launch Center

Loading…

Next Passes (next 24 hours)

TLE

FreshSource: Space-Track

Epoch: Sep 13, 2026, 10:45 UTC

1 61358U 24140VX  26256.44800719  .00000681  00000-0  16635-3 0  9997
2 61358  88.9231 253.5234 0085154 333.3719  26.3125 14.49352970107115

Track CZ-6A DEB in real time with AllMySat

Download on the App Store